This is the latest recevied weather packets stored in our database for station/object XE2KK-10. If no packets are shown the sender has not sent any weather packets the latest 10 day(s).
| Time | Temp. | Humidity | Pressure | Rain* | Wind** | Luminosity | Snow |
|---|---|---|---|---|---|---|---|
| 1777649053 | 17.22° C | 96% | 1013 hPa | 0 mm | - | 108 W/m² | - |
| 1777648753 | 17.22° C | 96% | 1013 hPa | 0 mm | - | 60 W/m² | - |
| 1777648453 | 17.78° C | 96% | 1012.6 hPa | 0 mm | - | 87 W/m² | - |
| 1777648153 | 17.78° C | 96% | 1012.8 hPa | 0 mm | - | 47 W/m² | - |
| 1777647853 | 17.22° C | 96% | 1013.4 hPa | 0 mm | - | 31 W/m² | - |
| 1777647553 | 17.78° C | 96% | 1013.1 hPa | 0 mm | - | 39 W/m² | - |
| 1777647253 | 17.22° C | 96% | 1012.8 hPa | 0 mm | - | 29 W/m² | - |
| 1777646953 | 17.22° C | 96% | 1012 hPa | 0 mm | - | 108 W/m² | - |
| 1777646653 | 17.22° C | 96% | 1012.6 hPa | 0 mm | - | 94 W/m² | - |
| 1777646352 | 17.22° C | 96% | 1012.8 hPa | 0 mm | - | 90 W/m² | - |
| 1777646053 | 17.22° C | 96% | 1013 hPa | 0 mm | - | 42 W/m² | - |
| 1777645753 | 17.22° C | 96% | 1012.7 hPa | 0 mm | - | 67 W/m² | - |
| 1777645453 | 17.22° C | 96% | 1012.4 hPa | 0 mm | - | 63 W/m² | - |
| 1777645152 | 17.22° C | 96% | 1012.8 hPa | 0 mm | - | 57 W/m² | - |
| 1777644852 | 17.78° C | 96% | 1012.6 hPa | 0 mm | - | 64 W/m² | - |
| 1777644552 | 17.78° C | 96% | 1012.3 hPa | 0 mm | - | 99 W/m² | - |
| 1777644253 | 17.22° C | 96% | 1012.5 hPa | 0 mm | - | 174 W/m² | - |
| 1777643953 | 17.22° C | 97% | 1012.1 hPa | 0 mm | - | 122 W/m² | - |
| 1777643653 | 17.22° C | 97% | 1012.3 hPa | 0 mm | - | 52 W/m² | - |
| 1777643352 | 17.22° C | 96% | 1012.3 hPa | 0 mm | - | 100 W/m² | - |
| 1777643052 | 17.22° C | 97% | 1012.4 hPa | 0 mm | - | 114 W/m² | - |
| 1777642753 | 17.22° C | 97% | 1012.5 hPa | 0 mm | - | 64 W/m² | - |
| 1777642453 | 17.22° C | 97% | 1012.3 hPa | 0 mm | - | 68 W/m² | - |
| 1777642153 | 17.22° C | 97% | 1012.6 hPa | 0 mm | - | 32 W/m² | - |
| 1777641853 | 17.22° C | 97% | 1012.6 hPa | 0 mm | - | 10 W/m² | - |
* Rain latest hour (hover to see other rain measurements)
** Current wind speed in m/s (hover to see current wind gust speed)